SCP
0 0 0 0 0 0 0 0 0 0 0 0 0 0 0 0 0 0 0 0 0 0 0 0 0 0 0 0 0 0 0 0 0 0 0 0 0 0
0 0 0 0 0 0 0 0 0 0 0 0 0 0 0 0 0 0 0 0 0 0 0 0 0 0 0 0 0 0 0 0 0 0 0 0 0 0
0 0 0 0 0 0 0 0 0 0 0 0 0 0 0 0 0 0 0 0 0 0 0 0 0 0 0 0 0 0 0 0 0 0 0 0 0 0
0 0 0 0 0 0 0 0 0 0 0 0 0 0 0 0 0 0 0 0 0 0 0 0 0 0 0 0 0 0 0 0 0 0 0 0 0 0
0 0 0 0 0 0 0 0 0 0 0 0 0 0 0 0 0 0 0 0 0 0 0 0 0 0 0 0 0 0 0 0 0 0 0 0 0 0
0 0 0 0 0 0 0 0 0 0 0 0 0 0 0 0 0 0 0 0 0 0 0 0 0 0 0 0 0 0 0 0 0 0 0 0 0 0
0 0 0 0 0 0 0 0 0 0 0 0 0 0 0 0 0 0 0 0 0 0 0 0 0 0 0 0 0 0 0 0 0 0 0 0 0 0
0 0 0 0 0 0 0 0 0 0 0 0 0 0 0 0 0 0 0 0 0 0 0 0 0 0 0 0 0 0 0 0 0 0 0 0 0 0
0 0 0 0 0 0 0 0 0 0 0 0 0 0 0 0 0 0 0 0 0 0 0 0 0 0 0 0 0 0 0 0 0 0 0 0 0 0
0 0 0 0 0 0 0 0 0 0 0 0 0 0 0 0 0 0 0 0 0 0 0 0 0 0 0 0 0 0 0 0 0 0 0 0 0 0
0 0 0 0 0 0 0 0 0 0 0 0 0 0 0 0 0 0 0 0 0 0 0 0 0 0 0 0 0 0 0 0 0 0 0 0 0 0
0 0 0 0 0 0 0 0 0 0 0 0 0 0 0 0 0 0 0 0 0 0 0 0 0 0 0 0 0 0 0 0 0 0 0 0 0 0
0 0 0 0 0 0 0 0 0 0 0 0 0 0 0 0 0 0 0 0 0 0 0 0 0 0 0 0 0 0 0 0 0 0 0 0 0 0
0 0 0 0 0 0 0 0 0 0 0 0 0 0 0 0 0 0 0 0 0 0 0 0 0 0 0 0 0 0 0 0 0 0 0 0 0 0
0 0 0 0 0 0 0 0 0 0 0 0 0 0 0 0 0 0 0 0 0 0 0 0 0 0 0 0 0 0 0 0 0 -0 0 0 0 0
0 0 0 0 0 0 0 0 0 0 0 0 0 0 0 0 0 0 0 0 0 0 0 0 0 0 0 0 0 0 0 0 0 -0 -0 0 0 0
0 -0 -0 0 0 0 0 0 0 0 0 0 0 0 0 0 0 0 0 0 0 0 0 0 0 0 0 0 0 0 0 0 0 -0 -0 -0 0 0
0 0 -0 -0 -0 0 0 0 0 0 0 0 0 0 0 0 0 0 0 0 0 0 0 0 0 0 0 0 0 0 0 0 -0 0 0 -0 0 0
0 0 0 0 0 0 0 0 0 0 0 0 0 0 0 0 0 0 0 0 0 0 0 0 0 0 0 0 0 0 0 0 0 0 0 0 0 0
0 0 0 0 0 0 0 0 0 0 0 0 0 0 0 0 0 0 0 0 0 0 0 0 0 0 0 0 0 0 0 0 0 0 0 0 0 0
0 0 0 0 0 0 0 0 0 0 0 0 0 0 0 0 0 0 0 0 0 0 0 0 0 0 0 0 0 0 0 0 0 0 0 0 0 0
0 0 0 0 0 0 0 0 0 0 0 0 0 0 0 0 0 0 0 0 0 0 0 0 0 0 0 0 0 0 0 0 0 0 0 0 0 0
0 0 0 0 0 0 0 0 0 0 0 0 0 0 0 0 0 0 0 0 0 0 0 0 0 0 0 0 0 0 0 0 0 0 0 0 0 0
Wind_Speed_500mb
42 42 36 27 26 28 29 26 28 38 38 26 27 30 39 42 44 45 52 54 50 61 52 63 64 66 63 60 60 64 71 72 69 69 71 69 64 61
43 41 44 35 33 32 29 28 29 33 44 38 40 38 42 44 42 47 48 50 50 58 62 60 57 63 66 68 64 61 64 70 71 71 73 73 72 70
54 52 51 48 46 36 35 35 36 35 45 46 41 40 43 42 44 48 43 45 50 53 55 62 70 71 77 80 83 79 71 69 75 78 79 80 78 76
52 50 53 45 46 43 40 40 40 40 43 50 46 44 41 45 47 49 44 43 44 48 53 51 54 57 61 74 68 71 74 74 76 77 80 82 88 87
65 58 55 50 51 46 42 42 40 40 40 44 49 46 45 42 44 46 44 46 40 42 46 50 58 59 49 56 57 66 73 71 73 75 75 81 83 83
69 70 67 63 62 55 47 45 42 42 41 43 43 44 41 37 38 39 46 45 44 38 38 42 46 57 63 55 53 53 66 58 65 69 70 67 69 72
79 77 74 80 72 64 56 46 42 42 40 38 41 38 36 31 31 39 42 44 46 30 30 32 33 34 40 47 58 72 84 66 59 60 66 66 67 70
86 83 78 74 78 71 63 61 60 52 45 41 38 38 34 30 28 35 31 27 24 24 35 39 31 27 26 27 37 54 59 72 82 61 46 51 65 71
80 88 85 77 75 70 64 61 62 62 60 53 43 37 33 28 28 26 25 24 25 29 29 33 24 21 28 21 29 39 43 49 56 81 79 74 54 55
79 79 92 86 74 69 58 51 54 51 52 53 50 38 31 27 26 27 27 28 26 22 19 27 18 26 30 25 28 34 35 41 42 43 57 56 66 72
75 80 86 93 79 76 61 55 45 44 45 53 49 45 41 35 31 26 22 19 21 21 21 22 18 37 31 14 17 27 31 38 40 44 41 45 51 55
71 72 82 99 78 77 63 44 42 43 40 37 37 39 36 33 25 25 22 23 20 20 13 17 20 26 24 16 14 30 33 37 41 42 44 47 49 54
72 72 64 70 82 77 72 50 45 35 40 40 35 33 29 27 27 30 26 25 25 27 26 25 19 25 26 37 33 40 32 39 33 29 35 38 36 44
70 71 67 70 87 90 68 54 45 40 42 37 35 36 31 26 25 27 29 29 29 31 27 28 32 29 34 37 41 29 38 37 39 35 32 31 36 33
61 62 59 58 67 65 59 59 48 42 44 42 39 37 34 26 24 29 30 32 34 34 34 33 34 32 34 39 43 41 43 38 34 24 37 40 45 43
54 52 49 34 44 51 49 54 51 40 42 46 42 37 32 30 27 27 28 29 33 34 33 33 34 34 38 38 41 43 39 35 41 45 47 42 36 29
54 50 41 33 24 21 23 29 32 35 41 47 45 38 36 33 32 30 32 32 37 36 35 32 32 34 37 38 45 44 43 42 38 45 39 41 43 32
49 42 34 27 22 19 20 25 31 36 36 37 36 36 38 36 36 36 35 37 38 38 38 34 33 36 40 43 40 43 43 44 37 40 44 44 44 35
33 33 32 32 29 27 26 28 28 27 31 33 35 35 35 38 41 38 37 40 38 37 37 34 37 36 40 48 32 33 43 41 41 43 42 45 51 49
30 31 32 29 28 27 26 26 25 26 31 33 33 35 39 41 41 39 40 42 39 38 40 38 38 40 47 50 48 44 43 44 46 53 51 48 53 54
35 34 33 33 31 30 29 30 33 33 37 39 36 37 40 39 43 43 45 49 47 45 46 44 41 43 46 49 60 63 61 54 51 49 48 53 54 56
38 38 36 35 35 35 33 36 37 37 36 36 39 40 41 42 46 44 45 49 50 50 48 46 43 45 50 55 64 66 65 61 55 55 53 54 57 62
40 38 39 38 38 38 38 37 38 40 38 38 39 39 42 43 40 42 47 49 52 53 52 51 44 45 51 60 68 68 66 64 62 59 62 60 59 57
Wind_Direction_500mb
312 312 312 304 301 292 298 293 297 305 305 297 303 307 310 313 305 294 279 277 281 269 281 278 264 262 259 260 264 261 248 247 247 250 250 244 239 242
302 299 301 299 294 290 287 284 280 282 285 287 295 298 304 309 309 309 301 291 279 269 263 263 267 263 264 262 259 261 263 253 245 246 247 249 244 240
298 297 297 295 292 285 282 280 276 274 276 282 286 296 298 298 300 304 307 297 287 275 273 273 267 273 290 273 264 260 260 260 254 248 247 246 246 243
282 281 288 285 283 283 281 276 272 271 273 280 285 290 288 291 292 293 297 299 295 289 276 268 268 259 262 267 262 259 253 255 254 254 248 246 244 243
275 271 275 273 277 278 274 271 271 271 270 274 280 282 284 287 288 286 287 288 292 291 287 278 268 268 268 270 255 259 246 246 248 251 254 248 248 244
265 264 266 269 274 275 271 268 267 266 267 269 275 280 280 280 283 288 280 282 282 285 287 282 275 269 265 266 273 278 271 253 247 248 245 249 250 247
266 263 260 265 267 268 269 265 259 262 265 268 270 272 275 277 277 275 282 282 284 289 280 283 285 287 280 274 271 266 272 288 272 252 242 245 248 250
269 263 259 256 259 262 265 268 263 256 258 258 265 267 268 269 270 278 284 293 299 272 280 281 283 284 283 286 274 269 258 262 269 285 278 248 244 247
272 261 257 254 254 260 264 265 266 265 263 255 254 256 265 263 265 275 279 283 285 290 304 298 305 285 280 272 275 277 276 266 263 260 279 282 279 248
277 266 254 249 244 244 246 252 260 259 262 260 256 253 261 261 260 269 270 277 289 295 302 304 299 308 304 288 271 267 267 268 268 267 260 260 268 276
283 272 257 248 242 242 241 246 239 245 250 250 247 251 251 256 259 248 271 280 294 301 294 288 316 310 322 303 255 264 274 268 273 278 277 275 261 256
290 282 266 247 236 236 235 231 239 244 240 240 258 259 256 260 262 268 246 263 284 305 282 301 309 327 327 317 285 294 291 274 279 277 278 274 274 272
308 295 280 253 228 229 244 225 228 229 241 238 248 255 252 246 242 259 246 250 259 263 281 286 292 304 294 302 310 317 315 320 316 298 283 279 276 268
312 312 292 271 258 246 233 229 229 236 237 243 249 251 250 244 244 245 244 248 252 260 264 271 278 285 289 291 299 299 310 312 318 313 299 289 278 278
313 312 310 268 254 246 229 224 220 230 241 241 244 248 252 249 244 248 251 257 262 263 263 262 264 271 275 282 290 298 306 311 302 306 304 298 296 296
317 319 316 299 256 248 229 222 228 234 238 242 244 246 251 254 254 256 258 259 261 264 263 259 257 261 267 273 283 289 295 293 299 301 304 307 302 300
309 317 324 309 292 269 247 236 239 241 238 240 243 249 252 256 257 255 255 256 256 260 262 262 261 262 263 270 275 279 287 287 289 295 300 297 295 296
308 314 315 311 298 278 262 256 252 247 239 241 248 250 253 254 255 257 252 248 253 256 259 259 259 260 264 265 263 270 275 283 289 290 290 294 296 294
305 308 307 309 308 303 291 278 269 264 262 257 259 250 252 255 256 255 255 256 258 262 262 259 258 260 267 269 272 264 268 273 283 286 288 287 288 291
307 305 302 303 299 294 292 288 281 277 271 269 262 259 254 252 254 253 256 256 256 257 259 258 255 258 263 267 274 266 263 267 278 282 285 285 284 289
307 302 300 298 295 290 285 278 272 270 264 261 261 257 259 256 254 254 253 251 252 255 257 258 259 260 261 265 268 272 278 275 276 279 281 282 284 292
300 296 295 293 289 288 284 280 280 282 280 278 275 271 263 259 257 257 255 258 258 258 260 261 264 267 263 259 266 276 281 280 276 281 278 283 279 283
296 295 294 292 291 291 286 283 281 277 274 271 270 270 266 264 262 261 261 259 259 261 263 266 265 263 259 263 272 276 276 277 280 280 282 288 283 279
Wind_Speed_850mb
42 42 36 27 26 28 29 26 28 38 38 26 27 30 39 42 44 45 52 54 50 61 52 63 64 66 63 60 60 64 71 72 69 69 71 69 64 61
43 41 44 35 33 32 29 28 29 33 44 38 40 38 42 44 42 47 48 50 50 58 62 60 57 63 66 68 64 61 64 70 71 71 73 73 72 70
54 52 51 48 46 36 35 35 36 35 45 46 41 40 43 42 44 48 43 45 50 53 55 62 70 71 77 80 83 79 71 69 75 78 79 80 78 76
52 50 53 45 46 43 40 40 40 40 43 50 46 44 41 45 47 49 44 43 44 48 53 51 54 57 61 74 68 71 74 74 76 77 80 82 88 87
65 58 55 50 51 46 42 42 40 40 40 44 49 46 45 42 44 46 44 46 40 42 46 50 58 59 49 56 57 66 73 71 73 75 75 81 83 83
69 70 67 63 62 55 47 45 42 42 41 43 43 44 41 37 38 39 46 45 44 38 38 42 46 57 63 55 53 53 66 58 65 69 70 67 69 72
79 77 74 80 72 64 56 46 42 42 40 38 41 38 36 31 31 39 42 44 46 30 30 32 33 34 40 47 58 72 84 66 59 60 66 66 67 70
86 83 78 74 78 71 63 61 60 52 45 41 38 38 34 30 28 35 31 27 24 24 35 39 31 27 26 27 37 54 59 72 82 61 46 51 65 71
80 88 85 77 75 70 64 61 62 62 60 53 43 37 33 28 28 26 25 24 25 29 29 33 24 21 28 21 29 39 43 49 56 81 79 74 54 55
79 79 92 86 74 69 58 51 54 51 52 53 50 38 31 27 26 27 27 28 26 22 19 27 18 26 30 25 28 34 35 41 42 43 57 56 66 72
75 80 86 93 79 76 61 55 45 44 45 53 49 45 41 35 31 26 22 19 21 21 21 22 18 37 31 14 17 27 31 38 40 44 41 45 51 55
71 72 82 99 78 77 63 44 42 43 40 37 37 39 36 33 25 25 22 23 20 20 13 17 20 26 24 16 14 30 33 37 41 42 44 47 49 54
72 72 64 70 82 77 72 50 45 35 40 40 35 33 29 27 27 30 26 25 25 27 26 25 19 25 26 37 33 40 32 39 33 29 35 38 36 44
70 71 67 70 87 90 68 54 45 40 42 37 35 36 31 26 25 27 29 29 29 31 27 28 32 29 34 37 41 29 38 37 39 35 32 31 36 33
61 62 59 58 67 65 59 59 48 42 44 42 39 37 34 26 24 29 30 32 34 34 34 33 34 32 34 39 43 41 43 38 34 24 37 40 45 43
54 52 49 34 44 51 49 54 51 40 42 46 42 37 32 30 27 27 28 29 33 34 33 33 34 34 38 38 41 43 39 35 41 45 47 42 36 29
54 50 41 33 24 21 23 29 32 35 41 47 45 38 36 33 32 30 32 32 37 36 35 32 32 34 37 38 45 44 43 42 38 45 39 41 43 32
49 42 34 27 22 19 20 25 31 36 36 37 36 36 38 36 36 36 35 37 38 38 38 34 33 36 40 43 40 43 43 44 37 40 44 44 44 35
33 33 32 32 29 27 26 28 28 27 31 33 35 35 35 38 41 38 37 40 38 37 37 34 37 36 40 48 32 33 43 41 41 43 42 45 51 49
30 31 32 29 28 27 26 26 25 26 31 33 33 35 39 41 41 39 40 42 39 38 40 38 38 40 47 50 48 44 43 44 46 53 51 48 53 54
35 34 33 33 31 30 29 30 33 33 37 39 36 37 40 39 43 43 45 49 47 45 46 44 41 43 46 49 60 63 61 54 51 49 48 53 54 56
38 38 36 35 35 35 33 36 37 37 36 36 39 40 41 42 46 44 45 49 50 50 48 46 43 45 50 55 64 66 65 61 55 55 53 54 57 62
40 38 39 38 38 38 38 37 38 40 38 38 39 39 42 43 40 42 47 49 52 53 52 51 44 45 51 60 68 68 66 64 62 59 62 60 59 57
Wind_Direction_850mb
312 312 312 304 301 292 298 293 297 305 305 297 303 307 310 313 305 294 279 277 281 269 281 278 264 262 259 260 264 261 248 247 247 250 250 244 239 242
302 299 301 299 294 290 287 284 280 282 285 287 295 298 304 309 309 309 301 291 279 269 263 263 267 263 264 262 259 261 263 253 245 246 247 249 244 240
298 297 297 295 292 285 282 280 276 274 276 282 286 296 298 298 300 304 307 297 287 275 273 273 267 273 290 273 264 260 260 260 254 248 247 246 246 243
282 281 288 285 283 283 281 276 272 271 273 280 285 290 288 291 292 293 297 299 295 289 276 268 268 259 262 267 262 259 253 255 254 254 248 246 244 243
275 271 275 273 277 278 274 271 271 271 270 274 280 282 284 287 288 286 287 288 292 291 287 278 268 268 268 270 255 259 246 246 248 251 254 248 248 244
265 264 266 269 274 275 271 268 267 266 267 269 275 280 280 280 283 288 280 282 282 285 287 282 275 269 265 266 273 278 271 253 247 248 245 249 250 247
266 263 260 265 267 268 269 265 259 262 265 268 270 272 275 277 277 275 282 282 284 289 280 283 285 287 280 274 271 266 272 288 272 252 242 245 248 250
269 263 259 256 259 262 265 268 263 256 258 258 265 267 268 269 270 278 284 293 299 272 280 281 283 284 283 286 274 269 258 262 269 285 278 248 244 247
272 261 257 254 254 260 264 265 266 265 263 255 254 256 265 263 265 275 279 283 285 290 304 298 305 285 280 272 275 277 276 266 263 260 279 282 279 248
277 266 254 249 244 244 246 252 260 259 262 260 256 253 261 261 260 269 270 277 289 295 302 304 299 308 304 288 271 267 267 268 268 267 260 260 268 276
283 272 257 248 242 242 241 246 239 245 250 250 247 251 251 256 259 248 271 280 294 301 294 288 316 310 322 303 255 264 274 268 273 278 277 275 261 256
290 282 266 247 236 236 235 231 239 244 240 240 258 259 256 260 262 268 246 263 284 305 282 301 309 327 327 317 285 294 291 274 279 277 278 274 274 272
308 295 280 253 228 229 244 225 228 229 241 238 248 255 252 246 242 259 246 250 259 263 281 286 292 304 294 302 310 317 315 320 316 298 283 279 276 268
312 312 292 271 258 246 233 229 229 236 237 243 249 251 250 244 244 245 244 248 252 260 264 271 278 285 289 291 299 299 310 312 318 313 299 289 278 278
313 312 310 268 254 246 229 224 220 230 241 241 244 248 252 249 244 248 251 257 262 263 263 262 264 271 275 282 290 298 306 311 302 306 304 298 296 296
317 319 316 299 256 248 229 222 228 234 238 242 244 246 251 254 254 256 258 259 261 264 263 259 257 261 267 273 283 289 295 293 299 301 304 307 302 300
309 317 324 309 292 269 247 236 239 241 238 240 243 249 252 256 257 255 255 256 256 260 262 262 261 262 263 270 275 279 287 287 289 295 300 297 295 296
308 314 315 311 298 278 262 256 252 247 239 241 248 250 253 254 255 257 252 248 253 256 259 259 259 260 264 265 263 270 275 283 289 290 290 294 296 294
305 308 307 309 308 303 291 278 269 264 262 257 259 250 252 255 256 255 255 256 258 262 262 259 258 260 267 269 272 264 268 273 283 286 288 287 288 291
307 305 302 303 299 294 292 288 281 277 271 269 262 259 254 252 254 253 256 256 256 257 259 258 255 258 263 267 274 266 263 267 278 282 285 285 284 289
307 302 300 298 295 290 285 278 272 270 264 261 261 257 259 256 254 254 253 251 252 255 257 258 259 260 261 265 268 272 278 275 276 279 281 282 284 292
300 296 295 293 289 288 284 280 280 282 280 278 275 271 263 259 257 257 255 258 258 258 260 261 264 267 263 259 266 276 281 280 276 281 278 283 279 283
296 295 294 292 291 291 286 283 281 277 274 271 270 270 266 264 262 261 261 259 259 261 263 266 265 263 259 263 272 276 276 277 280 280 282 288 283 279